Weather reports worldwide

Advertisment
Goteborg/Landvetter, Sweden (2526): temperature & dewpoint: 14.10.2019 22:00:00 - 20.10.2019 22:00:00 (CEST)Goteborg/Landvetter, Sweden (2526): wind speed: 14.10.2019 22:00:00 - 20.10.2019 22:00:00 (CEST)Goteborg/Landvetter, Sweden (2526): wind direction: 14.10.2019 22:00:00 - 20.10.2019 22:00:00 (CEST)Goteborg/Landvetter, Sweden (2526): reduced air pressure: 14.10.2019 22:00:00 - 20.10.2019 22:00:00 (CEST)Goteborg/Landvetter, Sweden (2526): visibility: 14.10.2019 22:00:00 - 20.10.2019 22:00:00 (CEST)
Date & Time tt [°C] td [°C] ff [km/h] ff [kn] dd ppp [hPa] vv [km]
20.10.2019 22:00:00 8,1 7,7 11 6 S 1014,2 2,6
20.10.2019 21:00:00 7,6 7,2 7 4 SSW 1014,0 0,1
20.10.2019 20:00:00 7,8 7,2 11 6 SSW 1013,3 1,9
20.10.2019 19:00:00 8,0 7,2 7 4 SSW 1012,6 5
20.10.2019 18:00:00 9,9 8,8 11 6 SW 1011,8 11
20.10.2019 17:00:00 10,4 9,2 11 6 SSW 1011,3 16
20.10.2019 16:00:00 10,7 8,6 18 10 SSW 1010,6 30
20.10.2019 15:00:00 10,9 9,2 11 6 S 1010,3 22
20.10.2019 14:00:00 11,0 9,3 18 10 SSW 1010,1 20
20.10.2019 13:00:00 11,3 9,2 14 8 S 1009,7 21
20.10.2019 12:00:00 10,7 9,1 14 8 SSW 1009,5 30
20.10.2019 11:00:00 10,2 9,4 14 8 S 1008,9 18
20.10.2019 10:00:00 9,2 8,4 7 4 S 1008,4 11
20.10.2019 09:00:00 8,9 8,1 11 6 S 1007,9 17
20.10.2019 08:00:00 8,6 7,8 11 6 S 1007,4 14
20.10.2019 07:00:00 8,6 7,8 14 8 SSW 1006,6 16
20.10.2019 06:00:00 8,8 8,0 11 6 SSW 1006,0 10
20.10.2019 05:00:00 10,1 9,3 14 8 SSW 1005,4 16
20.10.2019 04:00:00 9,8 9,0 18 10 S 1005,1 28
20.10.2019 03:00:00 9,4 8,6 14 8 SSE 1004,9 11
20.10.2019 02:00:00 9,4 8,6 14 8 SE 1005,1 19
20.10.2019 01:00:00 9,4 8,6 14 8 SE 1005,4 22
20.10.2019 00:00:00 9,6 8,8 14 8 SE 1005,8 11
19.10.2019 23:00:00 9,7 8,9 11 6 SSE 1006,0 13
19.10.2019 22:00:00 9,8 9,0 11 6 SSE 1006,1 15
19.10.2019 21:00:00 9,9 8,8 14 8 SSE 1005,7 12
19.10.2019 20:00:00 10,2 8,6 14 8 S 1005,7 19
19.10.2019 19:00:00 10,1 8,4 14 8 S 1005,5 28
19.10.2019 18:00:00 9,9 7,8 18 10 S 1005,2 28
19.10.2019 17:00:00 10,4 8,2 22 12 S 1004,8 30
19.10.2019 16:00:00 10,6 8,4 25 14 S 1004,5 27
19.10.2019 15:00:00 10,6 8,2 29 16 S 1004,6 23
19.10.2019 14:00:00 10,5 8,3 25 14 SSW 1004,3 21
19.10.2019 13:00:00 10,6 8,4 29 16 SSW 1003,8 30
19.10.2019 12:00:00 10,5 8,4 32 18 SSW 1003,5 23
19.10.2019 11:00:00 10,5 8,6 32 18 SSW 1002,9 18
19.10.2019 10:00:00 10,4 8,3 36 19 SSW 1002,5 21
19.10.2019 09:00:00 10,2 8,3 40 21 SSW 1002,0 24
19.10.2019 08:00:00 9,9 8,3 36 19 SSW 1001,3 23
19.10.2019 07:00:00 9,9 8,2 32 18 SSW 1000,8 24
19.10.2019 06:00:00 10,0 8,4 32 18 SSW 1000,3 13
19.10.2019 05:00:00 9,9 8,7 32 18 SSW 1000,2 14
19.10.2019 04:00:00 9,8 8,4 32 18 SSW 1000,2 20
19.10.2019 03:00:00 9,8 8,4 32 18 SSW 999,9 15
19.10.2019 02:00:00 9,4 8,0 32 18 SSW 999,6 5
19.10.2019 01:00:00 9,6 8,4 36 19 SSW 999,4 45
19.10.2019 00:00:00 10,1 8,9 29 16 SSW 999,2 26
18.10.2019 23:00:00 10,9 9,8 22 12 SSE 998,4 6
18.10.2019 22:00:00 11,1 10,2 22 12 ESE 999,3 10
18.10.2019 21:00:00 11,1 10,2 18 10 SE 1000,2 30
18.10.2019 20:00:00 11,1 10,3 14 8 SE 1001,5 14
18.10.2019 19:00:00 10,6 9,8 14 8 ESE 1002,5 20
18.10.2019 18:00:00 10,4 9,6 11 6 SE 1003,0 18
18.10.2019 17:00:00 10,7 9,6 11 6 S 1003,5 45
18.10.2019 16:00:00 10,9 9,8 18 10 S 1004,0 45
18.10.2019 15:00:00 10,1 9,3 14 8 SSE 1004,6 16
18.10.2019 14:00:00 9,0 8,2 14 8 E 1004,9 3,8
18.10.2019 13:00:00 8,5 7,4 14 8 ENE 1005,9 6
18.10.2019 12:00:00 8,1 7,3 14 8 E 1007,1 3,1
18.10.2019 11:00:00 7,9 7,1 11 6 E 1007,9 35
18.10.2019 10:00:00 7,7 7,3 14 8 E 1008,1 5
18.10.2019 09:00:00 7,5 7,1 11 6 ESE 1008,7 7
18.10.2019 08:00:00 7,2 6,8 11 6 ESE 1008,8 0,2
18.10.2019 07:00:00 7,5 7,1 11 6 SE 1009,1 3,8
18.10.2019 06:00:00 8,1 7,7 11 6 SSE 1009,2 0,3
18.10.2019 05:00:00 8,4 8,0 11 6 S 1009,4 0,2
18.10.2019 04:00:00 8,0 7,4 11 6 S 1009,5 8
18.10.2019 03:00:00 8,4 7,8 11 6 SSW 1009,5 11
18.10.2019 02:00:00 9,0 8,2 11 6 S 1009,3 30
18.10.2019 01:00:00 9,1 8,3 11 6 SSW 1009,4 27
18.10.2019 00:00:00 9,4 8,6 14 8 SSW 1009,1 9
17.10.2019 23:00:00 10,2 9,4 7 4 S 1008,9 9
17.10.2019 22:00:00 10,3 9,5 11 6 SSW 1008,7 8
17.10.2019 21:00:00 10,5 9,7 11 6 S 1008,3 10
17.10.2019 20:00:00 10,7 10,2 14 8 SSW 1008,4 10
17.10.2019 19:00:00 10,6 9,8 11 6 S 1008,1 19
17.10.2019 18:00:00 10,6 9,8 11 6 SSE 1007,8 35
17.10.2019 17:00:00 10,6 9,8 14 8 SE 1007,6 2,3
17.10.2019 16:00:00 10,6 9,8 14 8 SE 1007,5 3,6
17.10.2019 15:00:00 10,5 9,7 11 6 SE 1007,5 3,1
17.10.2019 14:00:00 10,7 9,5 14 8 SE 1007,6 3,1
17.10.2019 13:00:00 10,9 9,3 11 6 SSE 1007,9 24
17.10.2019 12:00:00 11,2 9,1 11 6 SSE 1008,0 50
17.10.2019 11:00:00 10,9 9,8 11 6 SSE 1007,9 40
17.10.2019 10:00:00 10,3 9,8 11 6 S 1007,6 10
17.10.2019 09:00:00 10,0 9,5 11 6 S 1007,2 3,5
17.10.2019 08:00:00 9,9 9,4 7 4 S 1006,8 5
17.10.2019 07:00:00 9,9 9,4 4 2 S 1006,6 0,9
17.10.2019 06:00:00 9,9 9,4 7 4 SSW 1006,8 0,2
17.10.2019 05:00:00 9,9 9,4 4 2 SW 1006,7 0,1
17.10.2019 04:00:00 9,9 9,4 4 2 SW 1006,6 0,5
17.10.2019 03:00:00 9,8 9,3 0 0 N 1006,5 0,3
17.10.2019 02:00:00 9,8 9,3 4 2 WSW 1006,4 0,3
17.10.2019 01:00:00 9,9 9,4 4 2 WSW 1006,0 0,6
17.10.2019 00:00:00 9,9 9,4 4 2 W 1005,8 1,4
16.10.2019 23:00:00 10,0 9,5 4 2 WNW 1005,6 2,7
16.10.2019 22:00:00 10,0 9,5 4 2 WNW 1005,6 2,2
16.10.2019 21:00:00 10,0 9,2 4 2 WNW 1005,1 0,8
16.10.2019 20:00:00 10,0 9,2 7 4 N 1005,2 4,4
16.10.2019 19:00:00 10,1 9,3 11 6 NNE 1005,1 7
16.10.2019 18:00:00 10,3 9,4 7 4 NNE 1005,3 24
16.10.2019 17:00:00 10,4 9,5 11 6 N 1005,0 5
16.10.2019 16:00:00 10,7 9,6 11 6 N 1005,0 15
16.10.2019 15:00:00 10,8 9,7 4 2 N 1005,2 19
16.10.2019 14:00:00 10,7 9,8 7 4 NNE 1005,2 28
16.10.2019 13:00:00 10,9 9,7 11 6 NNE 1005,1 -
16.10.2019 12:00:00 10,7 9,9 11 6 NNE 1005,4 -
16.10.2019 11:00:00 10,6 9,8 7 4 NNE 1005,7 -
16.10.2019 10:00:00 10,4 9,6 4 2 ENE 1005,7 -
16.10.2019 09:00:00 10,4 9,6 4 2 E 1005,7 -
16.10.2019 08:00:00 10,3 9,8 4 2 E 1005,4 -
16.10.2019 07:00:00 10,3 9,8 7 4 E 1005,7 -
16.10.2019 06:00:00 10,3 9,8 7 4 E 1005,9 -
16.10.2019 05:00:00 10,4 9,9 7 4 ESE 1005,9 -
16.10.2019 04:00:00 10,3 9,8 7 4 ESE 1006,2 -
16.10.2019 03:00:00 10,3 9,8 7 4 ESE 1006,4 -
16.10.2019 02:00:00 10,3 9,5 11 6 SE 1006,5 -
16.10.2019 01:00:00 10,3 9,5 11 6 SE 1006,9 -
16.10.2019 00:00:00 10,3 9,5 11 6 SSE 1007,3 -
15.10.2019 23:00:00 10,7 9,1 11 6 SSE 1007,2 -
15.10.2019 22:00:00 10,8 9,2 11 6 ESE 1007,0 0,1
15.10.2019 21:00:00 10,4 8,8 7 4 SSE 1007,5 0,1
15.10.2019 20:00:00 10,9 8,8 11 6 SE 1007,2 0,1
15.10.2019 19:00:00 11,0 8,7 11 6 ESE 1007,2 0,1
15.10.2019 18:00:00 11,9 9,1 14 8 SE 1006,7 0,1
15.10.2019 17:00:00 12,6 9,2 14 8 ESE 1006,4 0,1
15.10.2019 16:00:00 12,9 9,2 18 10 E 1007,1 -
15.10.2019 15:00:00 11,9 8,9 18 10 E 1007,9 0,1
15.10.2019 14:00:00 10,4 8,5 14 8 ENE 1009,2 0,1
15.10.2019 13:00:00 9,4 7,8 11 6 NE 1010,3 0,1
15.10.2019 12:00:00 8,8 6,9 7 4 NNE 1011,3 0,1
15.10.2019 11:00:00 8,7 6,8 18 10 E 1010,5 0,1
15.10.2019 10:00:00 8,0 6,5 18 10 ESE 1010,9 0,1
15.10.2019 09:00:00 7,7 6,3 22 12 ESE 1011,2 0,1
15.10.2019 08:00:00 7,5 6,4 18 10 ESE 1011,8 0,1
15.10.2019 07:00:00 7,2 6,3 22 12 E 1012,4 -
15.10.2019 06:00:00 7,2 5,8 14 8 ESE 1014,2 0,1
15.10.2019 05:00:00 6,7 5,3 18 10 E 1013,8 0,1
15.10.2019 04:00:00 6,5 5,1 11 6 E 1015,3 0,1
15.10.2019 03:00:00 6,6 5,2 11 6 E 1016,1 0,1
15.10.2019 02:00:00 6,9 5,2 11 6 E 1016,6 0,1
15.10.2019 01:00:00 7,1 4,9 11 6 E 1016,6 0,1
15.10.2019 00:00:00 7,1 5,4 11 6 E 1016,7 0,1
14.10.2019 23:00:00 7,2 5,5 7 4 E 1016,7 0,1
14.10.2019 22:00:00 7,4 5,4 7 4 E 1016,7 0,1

tt = temperature
td = dewpoint
ff = wind speed
dd = wind direction
ppp = reduced air pressure
vv = visibility

Next stations